Terug naar catalogus

NOAA 16 DEB

ActiefSSO
NORAD 41525·DEBRIS·🇺🇸 United States

Gelanceerd Sep 21, 2000 vanaf Vandenberg Space Force Base

Loading…

Volgende Passages (komende 24 uur)

TLE

VersSource: Space-Track

Epoch: Sep 14, 2026, 10:31 UTC

1 41525U 00055MZ  26257.43869650  .00002357  00000-0  91063-3 0  9999
2 41525  98.6503 328.5454 0009974 253.2381 106.7708 14.31082029542396

Volg NOAA 16 DEB in realtime met AllMySat

Download on the App Store